TimeEST,TemperatureF,Dew PointF,Humidity,Sea Level PressureIn,VisibilityMPH,Wind Direction,Wind SpeedMPH,Gust SpeedMPH,PrecipitationIn,Events,Conditions,WindDirDegrees,DateUTC
12:45 AM,28.4,21.2,74,29.74,10.0,NW,9.2,-,N/A,,Overcast,310,2013-03-03 05:45:00
1:45 AM,28.4,21.2,74,29.73,10.0,NW,9.2,-,N/A,,Overcast,310,2013-03-03 06:45:00
2:45 AM,28.4,19.4,69,29.72,10.0,WNW,6.9,-,N/A,,Overcast,300,2013-03-03 07:45:00
3:45 AM,26.6,19.4,74,29.71,10.0,WNW,11.5,-,N/A,,Overcast,300,2013-03-03 08:45:00
4:45 AM,26.6,19.4,74,29.72,10.0,NW,6.9,-,N/A,,Overcast,310,2013-03-03 09:45:00
6:45 AM,26.6,17.6,69,29.73,20.0,NW,9.2,-,N/A,,Mostly Cloudy,310,2013-03-03 11:45:00
7:45 AM,26.6,17.6,69,29.74,20.0,NW,11.5,-,N/A,,Mostly Cloudy,310,2013-03-03 12:45:00
8:45 AM,26.6,17.6,69,29.73,20.0,NW,6.9,-,N/A,,Mostly Cloudy,320,2013-03-03 13:45:00
9:45 AM,28.4,17.6,64,29.72,20.0,WNW,6.9,-,N/A,,Mostly Cloudy,300,2013-03-03 14:45:00
10:45 AM,30.2,19.4,64,29.71,20.0,WNW,9.2,-,N/A,,Mostly Cloudy,290,2013-03-03 15:45:00
11:45 AM,33.8,17.6,52,29.71,20.0,NNW,9.2,-,N/A,,Mostly Cloudy,330,2013-03-03 16:45:00
12:45 PM,35.6,19.4,52,29.68,20.0,WNW,11.5,-,N/A,,Mostly Cloudy,300,2013-03-03 17:45:00
2:45 PM,33.8,23.0,65,29.69,8.0,NW,20.7,28.8,N/A,,Overcast,320,2013-03-03 19:45:00
3:45 PM,33.8,23.0,65,29.69,5.0,NW,13.8,23.0,N/A,Snow,Snow Showers,320,2013-03-03 20:45:00
4:45 PM,33.8,21.2,60,29.70,20.0,NW,12.7,20.7,N/A,,Overcast,320,2013-03-03 21:45:00
5:45 PM,32.0,19.4,60,29.69,15.0,WNW,13.8,-,N/A,,Mostly Cloudy,300,2013-03-03 22:45:00
6:45 PM,30.2,19.4,64,29.71,10.0,WNW,18.4,-,N/A,,Mostly Cloudy,300,2013-03-03 23:45:00
7:45 PM,28.4,19.4,69,29.73,10.0,WNW,11.5,-,N/A,,Mostly Cloudy,300,2013-03-04 00:45:00
8:45 PM,28.4,19.4,69,29.75,10.0,WNW,10.4,-,N/A,,Mostly Cloudy,300,2013-03-04 01:45:00
9:45 PM,28.4,19.4,69,29.75,10.0,WNW,16.1,-,N/A,,Mostly Cloudy,290,2013-03-04 02:45:00
11:45 PM,26.6,17.6,69,29.75,10.0,WNW,11.5,-,N/A,,Mostly Cloudy,300,2013-03-04 04:45:00